Grand Forks Air Force Base, ND

6:34 PM CDT on August 31, 2016 (GMT -0500)
Grand Forks International

Weather History for KGFK - November, 2012

Change the Weather History Date:

Wednesday, November 28, 2012

  Actual Average Record
Temperature  
Mean Temperature 24 °F 19 °F  
Max Temperature 33 °F 27 °F 51 °F (2011)
Min Temperature 14 °F 10 °F -29 °F (1985)
Degree Days  
Heating Degree Days 41 46  
Month to date heating degree days 1051 1074  
Since 1 July heating degree days 2040 2105  
Cooling Degree Days 0 0  
Month to date cooling degree days 0 0  
Year to date cooling degree days 572 379  
Moisture  
Dew Point 18 °F    
Average Humidity 79    
Maximum Humidity 85    
Minimum Humidity 73    
Precipitation  
Precipitation 0.00 in 0.03 in 0.36 in (1960)
Month to date precipitation 0.85 0.91  
Year to date precipitation 16.77 20.16  
Snow  
Snow 0.00 in 0.30 in 3.60 in (1960)
Month to date snowfall 7.0 7.0  
Since 1 July snowfall 9.7 8.5  
Since 1 September snowfall 9.7 8.5  
Snow Depth 2.00 in    
Sea Level Pressure  
Sea Level Pressure 30.17 in    
Wind  
Wind Speed 10 mph (SSW)    
Max Wind Speed 25 mph    
Max Gust Speed 29 mph    
Visibility 10 miles    
Events      
T = Trace of Precipitation, MM = Missing Value Source: NWS Daily Summary

Daily Weather History Graph

Daily Weather History Graph

Search for Another Location

Airport or City:

Trip Planner

Search our weather history database for the weather conditions in past years. The results will help you decide how hot, cold, wet, or windy it might be!

Date:

Astronomy

Nov. 28, 2012 Rise Set
Actual Time 7:54 AM CST 4:39 PM CST
Civil Twilight 7:18 AM CST 5:14 PM CST
Nautical Twilight 6:40 AM CST 5:53 PM CST
Astronomical Twilight 6:02 AM CST 6:30 PM CST
Moon 4:54 PM CST (11/28) 7:52 AM CST (11/28)
Length of Visible Light 9h 55m
Length of Day
8h 45m
Full, 100% of the Moon is Illuminated
Nov 28
Full
Dec 6
Last Quarter
Dec 13
New
Dec 19
First Quarter
Dec 28
Full

Hourly Weather History & Observations

Time (CST) Temp. Windchill Dew Point Humidity Pressure Visibility Wind Dir Wind Speed Gust Speed Precip Events Conditions
12:53 AM 17.1 °F - 10.9 °F 77% 30.30 in 10.0 mi Calm Calm - N/A   Overcast
1:53 AM 17.1 °F - 12.0 °F 81% 30.31 in 10.0 mi Calm Calm - N/A   Overcast
2:53 AM 18.0 °F - 12.9 °F 81% 30.31 in 10.0 mi Calm Calm - N/A   Overcast
3:53 AM 18.0 °F 9.8 °F 12.9 °F 81% 30.29 in 10.0 mi South 5.8 mph - N/A   Overcast
4:53 AM 19.0 °F 10.0 °F 15.1 °F 85% 30.28 in 10.0 mi South 6.9 mph - N/A   Overcast
5:53 AM 19.0 °F 9.0 °F 15.1 °F 85% 30.26 in 10.0 mi South 8.1 mph - N/A   Overcast
6:53 AM 21.9 °F 14.5 °F 17.1 °F 82% 30.23 in 10.0 mi SSW 5.8 mph - N/A   Overcast
7:53 AM 21.0 °F 12.4 °F 17.1 °F 85% 30.22 in 10.0 mi South 6.9 mph - N/A   Overcast
8:12 AM 21.2 °F 12.6 °F 17.6 °F 86% 30.16 in 10.0 mi South 6.9 mph - N/A   Overcast
8:53 AM 21.9 °F 12.5 °F 18.0 °F 85% 30.21 in 10.0 mi South 8.1 mph - N/A   Overcast
9:53 AM 26.1 °F 15.0 °F 21.0 °F 81% 30.19 in 10.0 mi South 12.7 mph - N/A   Overcast
10:53 AM 26.1 °F 13.6 °F 21.9 °F 84% 30.16 in 9.0 mi South 16.1 mph - N/A   Overcast
11:53 AM 27.0 °F 13.9 °F 23.0 °F 85% 30.12 in 7.0 mi South 18.4 mph - N/A   Overcast
12:27 PM 28.4 °F 18.0 °F 24.8 °F 86% 30.05 in 7.0 mi South 12.7 mph - N/A   Overcast
12:53 PM 30.9 °F 22.2 °F 25.0 °F 79% 30.09 in 8.0 mi South 10.4 mph - N/A   Mostly Cloudy
1:53 PM 33.1 °F 23.4 °F 26.1 °F 75% 30.05 in 10.0 mi South 13.8 mph - N/A   Mostly Cloudy
2:53 PM 33.1 °F 27.7 °F 26.1 °F 75% 30.05 in 10.0 mi South 5.8 mph - N/A   Overcast
3:53 PM 32.0 °F 27.5 °F 27.0 °F 82% 30.05 in 10.0 mi WSW 4.6 mph - N/A   Overcast
4:53 PM 30.0 °F 25.2 °F 26.1 °F 85% 30.07 in 10.0 mi WNW 4.6 mph - N/A   Overcast
5:53 PM 24.1 °F 12.0 °F 19.9 °F 84% 30.13 in 10.0 mi North 13.8 mph - N/A   Overcast
6:11 PM 23.0 °F 9.2 °F 19.4 °F 86% 30.08 in 10.0 mi North 17.3 mph - N/A   Overcast
6:53 PM 21.9 °F 6.5 °F 17.1 °F 82% 30.15 in 10.0 mi North 20.7 mph - N/A   Overcast
7:53 PM 19.0 °F 3.6 °F 12.9 °F 77% 30.16 in 10.0 mi North 18.4 mph - N/A   Overcast
8:12 PM 17.6 °F 2.7 °F 12.2 °F 79% 30.11 in 10.0 mi North 16.1 mph - N/A   Mostly Cloudy
8:53 PM 17.1 °F 2.5 °F 10.9 °F 77% 30.16 in 10.0 mi North 15.0 mph - N/A   Scattered Clouds
9:53 PM 15.1 °F 1.1 °F 10.0 °F 80% 30.17 in 10.0 mi North 12.7 mph - N/A   Scattered Clouds
10:53 PM 15.1 °F 1.1 °F 10.0 °F 80% 30.20 in 10.0 mi North 12.7 mph - N/A   Mostly Cloudy
11:53 PM 15.1 °F -2.0 °F 8.1 °F 74% 30.22 in 10.0 mi NNE 19.6 mph 24.2 mph N/A   Mostly Cloudy